Regional Weather Roundup
Issued by NWS

Home | Current Version | Previous Version | Graphics & Text | Print | Product List | Glossary On
Versions: 1 2 3 4 5 6 7 8 9 10 11 12 13 14 15 16 17 18 19 20 21 22 23 24 25 26 27 28 29 30 31 32 33 34 35 36 37 38 39 40 41 42 43 44 45 46 47 48 49 50
000
ASUS43 KLOT 312212
RWRIL

ILLINOIS REGIONAL WEATHER ROUNDUP
NATIONAL WEATHER SERVICE CHICAGO/ROMEOVILLE IL
500 PM CDT FRI JUL 31 2015

NOTE: "FAIR" INDICATES FEW OR NO CLOUDS BELOW 12,000 FEET WITH NO
SIGNIFICANT WEATHER AND/OR OBSTRUCTIONS TO VISIBILITY.

* THESE STATIONS ARE NOT UNDER NWS QUALITY CONTROL. THEY ALSO MAY NOT
  REPORT WEATHER SUCH AS PRECIPITATION OR FOG.

ILZ001-002-007-009-015-016-024-312300-
NORTHWEST ILLINOIS

CITY           SKY/WX    TMP DP  RH WIND       PRES   REMARKS
MOLINE         SUNNY     87  53  31 NW16G25   30.01S HX  85
STERLING*      SUNNY     84  57  39 NW15      29.96S HX  83
SAVANNA*       SUNNY     84  51  31 NW12G20   29.99S HX  82
$$

ILZ003-004-008-010-011-017-018-312300-
NORTH CENTRAL ILLINOIS

CITY           SKY/WX    TMP DP  RH WIND       PRES   REMARKS
ROCKFORD       SUNNY     85  49  28 NW18G30   29.98F HX  83
FREEPORT*      SUNNY     82  53  37 NW17      30.00S HX  81
ROCHELLE*      SUNNY     83  56  39 W20G25    29.98F HX  82
DE KALB*       SUNNY     82  56  39 NW22      29.98S HX  82
PERU*          SUNNY     84  53  34 NW17      29.99S HX  82
$$

ILZ005-006-012>014-019>023-312300-
NORTHEAST ILLINOIS

CITY           SKY/WX    TMP DP  RH WIND       PRES   REMARKS
CHICAGO-OHARE  SUNNY     86  48  26 NW21G31   29.93S HX  83
CHICAGO-MIDWAY MOSUNNY   88  49  25 NW17G30   29.93F HX  85
AURORA         SUNNY     83  56  39 NW12G23   29.96F HX  82
LANSING*       SUNNY     85  47  26 W17G26    29.94S HX  83
JOLIET*        SUNNY     87  53  31 NW15G25   29.96S HX  84
WAUKEGAN       SUNNY     81  48  31 NW13G22   29.93S HX  80
DUPAGE AIRPORT SUNNY     84  49  29 NW15G25   29.95S HX  82
KANKAKEE*      SUNNY     86  58  39 W15G22    29.97S HX  85
WHEELING       SUNNY     84  46  26 NW15G32   29.95S HX  82
MORRIS*        SUNNY     84  58  41 W21       29.96S HX  83
ROMEOVILLE*    SUNNY     84  49  29 NW18G28   29.96S HX  82
NORTHERLY ISL    N/A     84  47  27 NW14        N/A  HX  82
$$

LMZ740>746-312300-
SOUTHERN LAKE MICHIGAN

STATION/POSITION SKY/WX   TEMP    WIND        PRES    VSBY  WAVE
                          AIR SEA DIR/SP/G                  HT/PER
                          (F)     (DEG/KT/KT) (MB)    (MI)  (FT/S)
HARRISON CRIB              81     310/ 21/ 26   N/A
BURNHAM HARBOR             84     330/ 10/ 22   N/A
CALUMET HARBOR             86     280/ 11/ 19   N/A
BURNS HARBOR               79     350/  5/  9 1013.9F
MICHIGAN CITY              80     290/  9/ 10   N/A
MICHIGAN CITY 6N           77 74  340/ 12/ 16   N/A           2/ 2
ST. JOSEPH                 75 74  360/ 10/ 12   N/A           2/ 4
$$

ILZ025>027-034>036-040-047-049-050-058-095>099-312300-
WEST-CENTRAL ILLINOIS

CITY           SKY/WX    TMP DP  RH WIND       PRES   REMARKS
QUINCY         SUNNY     87  64  46 NW8       30.04F HX  88
GALESBURG*     SUNNY     85  62  45 NW7       30.03S HX  85
MACOMB*        SUNNY     86  65  48 NW8       30.05F HX  88
JACKSONVILLE*  SUNNY     89  70  52 W8        30.03S HX  94
PITTSFIELD*    SUNNY     88  64  43 W8        30.06S HX  89
$$

ILZ028>032-037-038-041>044-048-051>054-059>061-312300-
CENTRAL ILLINOIS

CITY           SKY/WX    TMP DP  RH WIND       PRES   REMARKS
PONTIAC        SUNNY     85  65  52 NW12      29.99F HX  86
BLOOMINGTON    SUNNY     88  59  37 NW15      30.02F HX  87
DECATUR        SUNNY     89  59  36 NW9       30.01F HX  88
PEORIA         SUNNY     88  57  34 NW8       30.01F HX  87
LACON*         SUNNY     85  57  38 NW13      29.99S HX  84
LINCOLN*       SUNNY     90  56  32 N6        30.00F HX  88
SPRINGFIELD    MOSUNNY   89  68  49 NW7       30.02F HX  93
TAYLORVILLE    SUNNY     86  68  54 W6        30.02F HX  89
$$

ILZ033-039-045-046-055>057-062-063-312300-
EAST-CENTRAL ILLINOIS

CITY           SKY/WX    TMP DP  RH WIND       PRES   REMARKS
CHAMPAIGN      SUNNY     86  58  38 NW9       30.01F HX  85
DANVILLE*      SUNNY     84  61  46 W13       29.97F HX  84
RANTOUL*       SUNNY     88  60  39 W14       30.00F HX  87
MATTOON        SUNNY     89  62  40 NW13      30.01F HX  89
PARIS*         SUNNY     88  55  33 NW13G18   30.01F HX  86
$$

ILZ079-100>102-312300-
SOUTHWEST ILLINOIS

CITY           SKY/WX    TMP DP  RH WIND       PRES   REMARKS
BELLEVILLE     SUNNY     91  62  37 VRB3      30.03S HX  91
CAHOKIA*       SUNNY     94  58  29 W7        30.03S HX  93
SPARTA*        SUNNY     89  65  45 N6        30.05F HX  91
$$

ILZ064>066-069>071-074>076-080>082-084>086-088>090-092>094-312300-
SOUTH-CENTRAL ILLINOIS

CITY           SKY/WX    TMP DP  RH WIND       PRES   REMARKS
CARBONDALE     MOSUNNY   89  67  47 NW5       30.04F HX  92
CAIRO*         SUNNY     88  69  53 N5        30.04F HX  92
EFFINGHAM*     SUNNY     87  60  39 NW7       30.04S HX  86
MARION         MOSUNNY   90  66  45 NW8       30.05F HX  92
MT. VERNON     SUNNY     90  64  43 W3        30.04F HX  91
CENTRALIA*     SUNNY     89  60  38 NW6       30.03S HX  88
SALEM*         SUNNY     90  64  41 NW7       30.04S HX  91
METROPOLIS*    SUNNY     88  68  51 NW6       30.04F HX  91
$$

ILZ067-068-072-073-078-083-087-091-312300-
SOUTHEAST ILLINOIS

CITY           SKY/WX    TMP DP  RH WIND       PRES   REMARKS
LAWRENCEVILLE  SUNNY     89  64  43 NW10      30.01F HX  90
FLORA*         SUNNY     89  64  42 NW7       30.03S HX  90
FAIRFIELD*     SUNNY     88  65  47 NW5       30.02S HX  89
HARRISBURG*    MOSUNNY   89  65  45 W5        30.04F HX  90
ROBINSON*      SUNNY     87  66  48 NW8       30.02S HX  89
CARMI*         SUNNY     88  62  42 CALM      30.02S HX  88
$$

ABBREVIATIONS USED IN REMARKS
   TC - TEMPERATURE IN CELSIUS
  WCI - WIND CHILL INDEX
   HX - HEAT INDEX
  VSB - VISIBILITY
$$



USA.gov is the U.S. government's official web portal to all federal, state and local government web resources and services.